Location: Cheching
(60.0667°N, 164.2167°W)
Time: 11:29:18
(UTC+00:00)

FENGYUN 1C DEB - Pass Details

Date: 02 October 2021
Orbit: 727 x 819 km, 99.4° (Epoch: 17 October)

Event Time Altitude Azimuth Distance (km) Brightness Sun altitude
Rises 05:22:07 0° 21° (NNE) 3,230 ? -7.6°
Reaches altitude 10° 05:25:07 10° 2° (N) 2,318 ? -8.0°
Maximum altitude 05:28:20 17° 322° (NW) 1,877 ? -8.4°
Drops below altitude 10° 05:31:37 10° 283° (WNW) 2,351 ? -8.8°
Sets 05:34:41 0° 264° (W) 3,295 ? -9.2°
